Location: Newark
(46.7000°N, 60.6000°W)
Time: 05:54:27
(UTC+00:00)

A-11 Canister half - Pass Details

Date: 01 November 2020
Orbit: 1525 x 1684 km, 47.3° (Epoch: 27 November)

Event Time Altitude Azimuth Distance (km) Brightness Sun altitude
Rises 20:51:57 0° 277° (W) 4,756 12.9 -1.8°
Reaches altitude 10° 20:55:03 10° 278° (W) 3,752 12.3 -2.3°
Maximum altitude 21:04:33 90° 1° (N) 1,539 9.1 -3.8°
Drops below altitude 10° 21:13:53 10° 101° (E) 3,690 10.5 -5.3°
Enters shadow 21:16:26 - 101° (ESE) 4,520 10.9 -5.8°
Sets 21:16:54 0° 101° (ESE) 4,673 - -5.8°
